AHK456 RPVM-RPLL

Flight info

Callsign AHK456
Flight time 0h 57m
Altitude 36000
Route MULOP4P MULOP W11 CONDE CONDE1A
Aircraft A333/H-SDE3GHIJ2J3J5M1RVWXY/LB2D1

Departure

Time 2026-04-30 12:40
Airport Mactan Cebu International Airport (RPVM)

Arrival

Time 2026-04-30 13:38
Airport Ninoy Aquino International Airport (RPLL)
Time Latitude Longitude Altitude Speed Heading
2026-04-30 12:20 10.31204 123.97831 39 ft 0 kts 225°
2026-04-30 12:31 10.31211 123.97838 40 ft 3 kts 238°
2026-04-30 12:31 10.31217 123.97856 40 ft 3 kts 260°
2026-04-30 12:32 10.31223 123.97873 40 ft 3 kts 225°
2026-04-30 12:32 10.31237 123.97887 36 ft 3 kts 225°
2026-04-30 12:32 10.31252 123.97902 39 ft 3 kts 223°
2026-04-30 12:32 10.31267 123.97915 37 ft 3 kts 214°
2026-04-30 12:33 10.31284 123.97924 37 ft 3 kts 184°
2026-04-30 12:33 10.31296 123.97923 38 ft 1 kts 135°
2026-04-30 12:33 10.31305 123.97913 38 ft 3 kts 135°
2026-04-30 12:33 10.31317 123.97901 39 ft 1 kts 135°
2026-04-30 12:34 10.31319 123.97899 39 ft 0 kts 135°
2026-04-30 12:35 10.31312 123.97907 36 ft 4 kts 134°
2026-04-30 12:36 10.31282 123.97937 40 ft 8 kts 134°
2026-04-30 12:36 10.31234 123.97982 40 ft 10 kts 153°
2026-04-30 12:36 10.31168 123.97951 40 ft 14 kts 220°
2026-04-30 12:36 10.31086 123.97869 40 ft 19 kts 224°
2026-04-30 12:37 10.30980 123.97763 40 ft 24 kts 224°
2026-04-30 12:37 10.30854 123.97636 40 ft 27 kts 225°
2026-04-30 12:37 10.30714 123.97496 40 ft 28 kts 224°
2026-04-30 12:37 10.30574 123.97355 40 ft 28 kts 225°
2026-04-30 12:38 10.30438 123.97219 40 ft 28 kts 224°
2026-04-30 12:38 10.30368 123.97164 40 ft 3 kts 175°
2026-04-30 12:38 10.30328 123.97189 40 ft 10 kts 143°
2026-04-30 12:38 10.30269 123.97248 40 ft 14 kts 135°
2026-04-30 12:39 10.30192 123.97327 39 ft 15 kts 132°
2026-04-30 12:39 10.30190 123.97368 41 ft 6 kts 64°
2026-04-30 12:39 10.30281 123.97471 40 ft 45 kts 46°
2026-04-30 12:39 10.30645 123.97831 39 ft 100 kts 44°
2026-04-30 12:40 10.31249 123.98435 42 ft 145 kts 44°
2026-04-30 12:40 10.32022 123.99230 352 ft 160 kts 49°
2026-04-30 12:40 10.32789 124.00012 953 ft 155 kts 44°
2026-04-30 12:40 10.33623 124.00749 1347 ft 170 kts 29°
2026-04-30 12:41 10.34853 124.00854 1549 ft 195 kts 344°
2026-04-30 12:41 10.36213 124.00290 1605 ft 226 kts 343°
2026-04-30 12:41 10.37794 123.99809 1873 ft 246 kts 348°
2026-04-30 12:41 10.39490 123.99388 2437 ft 255 kts 350°
2026-04-30 12:42 10.41239 123.98977 3121 ft 260 kts 351°
2026-04-30 12:42 10.43016 123.98547 3801 ft 264 kts 350°
2026-04-30 12:42 10.44813 123.98087 4530 ft 268 kts 349°
2026-04-30 12:42 10.46615 123.97613 5215 ft 272 kts 349°
2026-04-30 12:43 10.48459 123.97113 5970 ft 276 kts 348°
2026-04-30 12:43 10.50330 123.96595 6699 ft 280 kts 348°
2026-04-30 12:43 10.52223 123.96065 7434 ft 284 kts 348°
2026-04-30 12:43 10.54137 123.95526 8190 ft 287 kts 348°
2026-04-30 12:44 10.56077 123.94982 8968 ft 291 kts 348°
2026-04-30 12:44 10.58045 123.94433 9723 ft 295 kts 348°
2026-04-30 12:44 10.60019 123.93883 10324 ft 304 kts 348°
2026-04-30 12:44 10.62120 123.93302 10640 ft 323 kts 348°
2026-04-30 12:45 10.64282 123.92458 10916 ft 344 kts 334°
2026-04-30 12:45 10.66251 123.90979 11374 ft 357 kts 321°
2026-04-30 12:45 10.68052 123.89202 11980 ft 363 kts 316°
2026-04-30 12:45 10.69757 123.87277 12616 ft 367 kts 313°
2026-04-30 12:46 10.71412 123.85280 13222 ft 371 kts 312°
2026-04-30 12:46 10.73064 123.83244 13837 ft 374 kts 311°
2026-04-30 12:46 10.74734 123.81194 14361 ft 378 kts 312°
2026-04-30 12:46 10.76433 123.79130 14880 ft 381 kts 312°
2026-04-30 12:47 10.78156 123.77063 15415 ft 385 kts 312°
2026-04-30 12:47 10.79884 123.75007 15933 ft 388 kts 313°
2026-04-30 12:47 10.81652 123.72914 16452 ft 391 kts 313°
2026-04-30 12:47 10.83436 123.70808 16965 ft 394 kts 313°
2026-04-30 12:48 10.85231 123.68689 17466 ft 397 kts 312°
2026-04-30 12:48 10.87041 123.66553 17938 ft 400 kts 312°
2026-04-30 12:48 10.88870 123.64392 18402 ft 403 kts 312°
2026-04-30 12:48 10.90709 123.62219 18810 ft 406 kts 312°
2026-04-30 12:49 10.92561 123.60029 19217 ft 409 kts 312°
2026-04-30 12:49 10.94421 123.57827 19641 ft 412 kts 312°
2026-04-30 12:49 10.96297 123.55607 20035 ft 414 kts 312°
2026-04-30 12:49 10.98162 123.53400 20425 ft 417 kts 313°
2026-04-30 12:50 11.00187 123.51288 20820 ft 418 kts 320°
2026-04-30 12:50 11.02454 123.49419 21215 ft 420 kts 324°
2026-04-30 12:50 11.04811 123.47648 21625 ft 421 kts 326°
2026-04-30 12:50 11.07217 123.45933 22019 ft 423 kts 327°
2026-04-30 12:51 11.09659 123.44237 22398 ft 426 kts 327°
2026-04-30 12:51 11.12129 123.42539 22774 ft 429 kts 327°
2026-04-30 12:51 11.14608 123.40833 23158 ft 431 kts 327°
2026-04-30 12:51 11.16255 123.39696 23420 ft 433 kts 327°
2026-04-30 12:52 11.18756 123.37962 23737 ft 435 kts 327°
2026-04-30 12:52 11.21261 123.36217 24037 ft 438 kts 327°
2026-04-30 12:52 11.24609 123.33878 24445 ft 441 kts 327°
2026-04-30 12:52 11.26297 123.32697 24662 ft 443 kts 327°
2026-04-30 12:53 11.28848 123.30912 24994 ft 444 kts 327°
2026-04-30 12:53 11.31398 123.29127 25323 ft 446 kts 327°
2026-04-30 12:53 11.33963 123.27331 25632 ft 448 kts 327°
2026-04-30 12:53 11.36544 123.25524 25934 ft 450 kts 327°
2026-04-30 12:54 11.39133 123.23710 26246 ft 452 kts 327°
2026-04-30 12:54 11.41739 123.21885 26570 ft 454 kts 326°
2026-04-30 12:54 11.44313 123.20082 26900 ft 455 kts 326°
2026-04-30 12:54 11.46932 123.18247 27198 ft 457 kts 326°
2026-04-30 12:55 11.49562 123.16404 27472 ft 460 kts 326°
2026-04-30 12:55 11.52207 123.14550 27751 ft 462 kts 326°
2026-04-30 12:55 11.54863 123.12689 28093 ft 463 kts 326°
2026-04-30 12:55 11.57532 123.10817 28308 ft 467 kts 326°
2026-04-30 12:56 11.60218 123.08933 28621 ft 468 kts 326°
2026-04-30 12:56 11.62901 123.07050 28956 ft 469 kts 326°
2026-04-30 12:56 11.65564 123.05181 29197 ft 471 kts 326°
2026-04-30 12:56 11.68289 123.03269 29372 ft 476 kts 326°
2026-04-30 12:57 11.71014 123.01355 29747 ft 475 kts 325°
2026-04-30 12:57 11.73730 122.99447 30118 ft 474 kts 325°
2026-04-30 12:57 11.76464 122.97527 30227 ft 479 kts 325°
2026-04-30 12:57 11.79221 122.95590 30366 ft 483 kts 325°
2026-04-30 12:58 11.81995 122.93640 30651 ft 482 kts 325°
2026-04-30 12:58 11.84728 122.91718 30912 ft 482 kts 325°
2026-04-30 12:58 11.87499 122.89770 31099 ft 485 kts 325°
2026-04-30 12:58 11.90286 122.87810 31231 ft 488 kts 325°
2026-04-30 12:59 11.93088 122.85839 31441 ft 490 kts 325°
2026-04-30 12:59 11.95898 122.83861 31683 ft 491 kts 325°
2026-04-30 12:59 11.98717 122.81877 31863 ft 492 kts 325°
2026-04-30 12:59 12.01538 122.79891 32119 ft 492 kts 325°
2026-04-30 13:00 12.04359 122.77904 32349 ft 493 kts 324°
2026-04-30 13:00 12.07190 122.75910 32545 ft 495 kts 324°
2026-04-30 13:00 12.10029 122.73910 32797 ft 495 kts 324°
2026-04-30 13:00 12.12861 122.71914 33066 ft 495 kts 324°
2026-04-30 13:01 12.15695 122.69916 33314 ft 495 kts 324°
2026-04-30 13:01 12.18494 122.67942 33558 ft 495 kts 324°
2026-04-30 13:01 12.21329 122.65943 33820 ft 495 kts 324°
2026-04-30 13:01 12.24166 122.63941 34053 ft 495 kts 324°
2026-04-30 13:02 12.27002 122.61940 34297 ft 494 kts 324°
2026-04-30 13:02 12.29827 122.59946 34619 ft 491 kts 324°
2026-04-30 13:02 12.32631 122.57966 34918 ft 489 kts 324°
2026-04-30 13:02 12.35428 122.55991 35208 ft 488 kts 324°
2026-04-30 13:03 12.38214 122.54023 35552 ft 484 kts 324°
2026-04-30 13:03 12.40972 122.52073 35872 ft 482 kts 324°
2026-04-30 13:03 12.46439 122.48208 35959 ft 470 kts 324°
2026-04-30 13:04 12.51792 122.44421 35960 ft 466 kts 324°
2026-04-30 13:04 12.57096 122.40666 35963 ft 466 kts 324°
2026-04-30 13:05 12.62445 122.36879 35960 ft 467 kts 324°
2026-04-30 13:06 12.70457 122.31202 35968 ft 465 kts 324°
2026-04-30 13:06 12.75767 122.27437 35965 ft 464 kts 324°
2026-04-30 13:07 12.81036 122.23699 35967 ft 463 kts 324°
2026-04-30 13:07 12.86344 122.19932 35966 ft 463 kts 324°
2026-04-30 13:08 12.91648 122.16166 35960 ft 463 kts 324°
2026-04-30 13:08 12.96952 122.12397 35960 ft 463 kts 324°
2026-04-30 13:09 13.02222 122.08651 35967 ft 463 kts 324°
2026-04-30 13:09 13.07525 122.04879 35965 ft 464 kts 324°
2026-04-30 13:10 13.12826 122.01107 35967 ft 464 kts 324°
2026-04-30 13:10 13.18118 121.97339 35968 ft 464 kts 324°
2026-04-30 13:11 13.23420 121.93562 35969 ft 464 kts 324°
2026-04-30 13:11 13.28727 121.89779 35970 ft 464 kts 324°
2026-04-30 13:11 13.31397 121.87875 35768 ft 470 kts 324°
2026-04-30 13:12 13.34102 121.85946 35097 ft 477 kts 324°
2026-04-30 13:12 13.36850 121.83985 34220 ft 485 kts 324°
2026-04-30 13:12 13.39651 121.81985 33251 ft 494 kts 324°
2026-04-30 13:13 13.45317 121.77940 31050 ft 495 kts 324°
2026-04-30 13:13 13.48137 121.75927 29850 ft 491 kts 324°
2026-04-30 13:13 13.53680 121.71967 27419 ft 477 kts 324°
2026-04-30 13:14 13.56389 121.70030 26259 ft 471 kts 324°
2026-04-30 13:14 13.59021 121.68148 25394 ft 461 kts 325°
2026-04-30 13:14 13.64132 121.64491 24392 ft 441 kts 325°
2026-04-30 13:15 13.66646 121.62691 23856 ft 440 kts 325°
2026-04-30 13:15 13.71670 121.59095 22682 ft 438 kts 326°
2026-04-30 13:15 13.74167 121.57306 22148 ft 434 kts 326°
2026-04-30 13:16 13.76608 121.55556 21646 ft 431 kts 326°
2026-04-30 13:16 13.79063 121.53797 21134 ft 428 kts 326°
2026-04-30 13:16 13.81495 121.52053 20641 ft 425 kts 326°
2026-04-30 13:17 13.86320 121.48594 19642 ft 418 kts 326°
2026-04-30 13:17 13.88704 121.46884 19131 ft 415 kts 326°
2026-04-30 13:17 13.93413 121.43507 17959 ft 414 kts 326°
2026-04-30 13:18 13.95773 121.41814 17435 ft 410 kts 326°
2026-04-30 13:18 14.00397 121.38494 16455 ft 400 kts 326°
2026-04-30 13:18 14.02673 121.36858 15968 ft 396 kts 326°
2026-04-30 13:19 14.04923 121.35242 15474 ft 392 kts 326°
2026-04-30 13:19 14.07060 121.33522 15103 ft 386 kts 314°
2026-04-30 13:19 14.08599 121.31295 14640 ft 383 kts 295°
2026-04-30 13:19 14.09367 121.28682 14250 ft 378 kts 280°
2026-04-30 13:20 14.09755 121.26051 13785 ft 375 kts 277°
2026-04-30 13:20 14.10097 121.23389 13243 ft 374 kts 277°
2026-04-30 13:20 14.10439 121.20742 12763 ft 370 kts 277°
2026-04-30 13:20 14.10777 121.18115 12260 ft 368 kts 277°
2026-04-30 13:21 14.11109 121.15516 11819 ft 363 kts 277°
2026-04-30 13:21 14.11435 121.12925 11199 ft 366 kts 277°
2026-04-30 13:21 14.11757 121.10335 10705 ft 364 kts 277°
2026-04-30 13:22 14.12374 121.05266 10130 ft 347 kts 277°
2026-04-30 13:22 14.12668 121.02834 9967 ft 336 kts 277°
2026-04-30 13:22 14.13229 120.98214 9648 ft 315 kts 278°
2026-04-30 13:23 14.13490 120.95979 9303 ft 312 kts 277°
2026-04-30 13:23 14.14009 120.91610 8709 ft 304 kts 277°
2026-04-30 13:24 14.14507 120.87312 8010 ft 301 kts 277°
2026-04-30 13:24 14.14841 120.83046 7329 ft 298 kts 270°
2026-04-30 13:25 14.14618 120.78821 6654 ft 295 kts 268°
2026-04-30 13:25 14.14321 120.74609 5928 ft 294 kts 267°
2026-04-30 13:26 14.13908 120.68342 5084 ft 290 kts 267°
2026-04-30 13:26 14.13863 120.64212 5004 ft 287 kts 286°
2026-04-30 13:27 14.16236 120.61208 5006 ft 275 kts 339°
2026-04-30 13:28 14.21687 120.60994 5009 ft 265 kts 25°
2026-04-30 13:28 14.24841 120.62908 5008 ft 264 kts 31°
2026-04-30 13:28 14.26459 120.63814 5009 ft 265 kts 29°
2026-04-30 13:29 14.29706 120.65584 4892 ft 264 kts 31°
2026-04-30 13:29 14.32512 120.67865 4327 ft 258 kts 52°
2026-04-30 13:30 14.35102 120.72625 3643 ft 240 kts 65°
2026-04-30 13:31 14.36582 120.75496 3623 ft 216 kts 61°
2026-04-30 13:31 14.38784 120.79537 3620 ft 215 kts 62°
2026-04-30 13:32 14.40140 120.82061 3628 ft 187 kts 62°
2026-04-30 13:32 14.41342 120.84296 3419 ft 172 kts 62°
2026-04-30 13:33 14.42498 120.86443 2933 ft 169 kts 63°
2026-04-30 13:33 14.43616 120.88538 2497 ft 166 kts 64°
2026-04-30 13:34 14.44148 120.89587 2253 ft 164 kts 63°
2026-04-30 13:34 14.45722 120.92618 1693 ft 154 kts 62°
2026-04-30 13:35 14.46225 120.93552 1456 ft 143 kts 62°
2026-04-30 13:35 14.47186 120.95304 1095 ft 139 kts 63°
2026-04-30 13:36 14.48144 120.97048 782 ft 140 kts 63°
2026-04-30 13:36 14.48623 120.97922 592 ft 139 kts 62°
2026-04-30 13:36 14.49582 120.99637 236 ft 139 kts 62°
2026-04-30 13:37 14.50065 121.00505 67 ft 138 kts 63°
2026-04-30 13:37 14.50707 121.01666 62 ft 61 kts 60°
2026-04-30 13:38 14.51116 121.02287 66 ft 22 kts 37°
2026-04-30 13:38 14.51195 121.02281 65 ft 1 kts 298°
2026-04-30 13:38 14.51160 121.02201 63 ft 8 kts 240°
2026-04-30 13:39 14.51145 121.02173 63 ft 3 kts 239°
2026-04-30 13:39 14.51101 121.02096 62 ft 9 kts 240°
2026-04-30 13:40 14.51060 121.02022 63 ft 14 kts 241°
2026-04-30 13:40 14.51007 121.01927 62 ft 16 kts 240°
2026-04-30 13:40 14.50950 121.01825 62 ft 17 kts 239°
2026-04-30 13:40 14.50910 121.01754 65 ft 18 kts 239°
2026-04-30 13:41 14.50826 121.01603 62 ft 18 kts 240°
2026-04-30 13:41 14.50783 121.01526 62 ft 19 kts 240°
2026-04-30 13:41 14.50693 121.01365 65 ft 20 kts 240°
2026-04-30 13:41 14.50625 121.01241 64 ft 20 kts 240°
2026-04-30 13:42 14.50578 121.01157 66 ft 21 kts 240°
2026-04-30 13:42 14.50505 121.01026 62 ft 21 kts 240°
2026-04-30 13:42 14.50472 121.00838 63 ft 10 kts 19°
2026-04-30 13:43 14.50517 121.00894 62 ft 9 kts 46°
2026-04-30 13:43 14.50558 121.00907 68 ft 7 kts 12°
2026-04-30 13:43 14.50606 121.00916 69 ft 5 kts 10°